Location: Nelson
(38.9945°N, 93.0321°W)
Time: 16:01:24
(UTC+00:00)

ACS3 Solar Sail - Pass Details

Date: 30 June 2024
Orbit: 993 x 1023 km, 97.4° (Epoch: 19 July)

Event Time Altitude Azimuth Distance (km) Brightness Sun altitude
Exits shadow 04:49:55 16° 227° (SW) 2,358 6.6 -24.7°
Maximum altitude 04:53:18 24° 268° (W) 1,921 6.5 -24.9°
Drops below altitude 10° 04:58:13 10° 321° (NW) 2,763 8.1 -25.3°
Sets 05:01:15 0° 335° (NNW) 3,716 9.2 -25.5°
